EW8459 Weather Reports


time (UTC)temp
F
wind
direction
speed
knots
gust
knots
rain 1hr
in
rain 24hr
in
rain mn
in
humidity
%
barometer
mb
20260505031726 60 140 2.6 7.0 0.00 0.00 0.00 52 1008.0
20260505031005 60 187 2.6 7.0 0.00 0.00 0.00 51 1008.0
20260505030504 60 182 2.6 7.0 0.00 0.00 0.00 51 1008.0
20260505030226 61 158 2.6 5.2 0.00 0.00 0.00 51 1007.9
20260505025504 61 165 2.6 6.1 0.00 0.00 0.00 50 1007.9
20260505025006 61 158 2.6 7.8 0.00 0.00 0.00 50 1008.0
20260505024504 61 164 2.6 7.8 0.00 0.00 0.00 50 1008.1
20260505024225 61 156 2.6 6.1 0.00 0.00 0.00 49 1008.0
20260505023724 61 157 2.6 6.1 0.00 0.00 0.00 49 1008.0
20260505023005 61 136 1.7 5.2 0.00 0.00 0.00 49 1008.0
20260505022504 62 119 1.7 5.2 0.00 0.00 0.00 49 1008.0
20260505022005 62 155 2.6 6.1 0.00 0.00 0.00 48 1008.1
20260505021504 62 162 2.6 6.1 0.00 0.00 0.00 48 1008.0
20260505021007 62 178 2.6 4.3 0.00 0.00 0.00 48 1008.2
20260505020503 62 167 2.6 7.8 0.00 0.00 0.00 47 1008.1
20260505020007 62 159 2.6 7.8 0.00 0.00 0.00 47 1008.0
20260505015503 63 171 2.6 6.1 0.00 0.00 0.00 47 1008.0
20260505014956 63 163 2.6 5.2 0.00 0.00 0.00 47 1007.9
20260505014449 63 177 2.6 5.2 0.00 0.00 0.00 46 1007.9
20260505014206 63 184 2.6 6.1 0.00 0.00 0.00 46 1007.7
20260505013438 64 157 3.5 6.1 0.00 0.00 0.00 46 1007.6
20260505013155 64 194 2.6 6.1 0.00 0.00 0.00 45 1007.6
20260505012436 64 173 2.6 5.2 0.00 0.00 0.00 45 1007.5
20260505012423 64 163 3.5 9.6 0.00 0.00 0.00 44 1007.4
20260505011434 64 207 3.5 9.6 0.00 0.00 0.00 44 1007.3
20260505010934 65 186 2.6 7.0 0.00 0.00 0.00 44 1007.2
20260505010432 65 184 3.5 7.0 0.00 0.00 0.00 44 1007.0
20260505005932 65 240 3.5 11.3 0.00 0.00 0.00 43 1006.8
20260505005431 65 175 3.5 11.3 0.00 0.00 0.00 42 1006.8
20260505005154 65 191 2.6 7.0 0.00 0.00 0.00 42 1006.7
20260505004430 66 173 2.6 7.8 0.00 0.00 0.00 42 1006.6
20260505003931 66 173 3.5 7.8 0.00 0.00 0.00 41 1006.5
20260505003430 66 141 3.5 7.8 0.00 0.00 0.00 40 1006.3
20260505002930 67 207 4.3 7.8 0.00 0.00 0.00 39 1006.2
20260505002431 67 153 3.5 7.8 0.00 0.00 0.00 39 1005.9
20260505001930 66 200 1.7 6.1 0.00 0.00 0.00 38 1005.8
20260505001430 66 194 0.0 0.9 0.00 0.00 0.00 37 1005.6
20260505000930 67 49 0.0 0.0 0.00 0.00 0.00 36 1005.4
20260505000431 67 49 0.0 0.9 0.00 0.00 0.00 36 1005.3
20260504235926 67 49 0.0 1.7 0.00 0.00 0.00 36 1005.3
20260504235419 67 178 0.0 1.7 0.00 0.00 0.00 36 1005.2
20260504234914 68 127 0.0 1.7 0.00 0.00 0.00 36 1005.2
20260504234407 68 210 0.0 1.7 0.00 0.00 0.00 35 1005.1
20260504233908 68 113 0.0 0.9 0.00 0.00 0.00 34 1005.1
20260504233406 69 62 0.0 1.7 0.00 0.00 0.00 34 1005.0
20260504232905 69 19 0.0 1.7 0.00 0.00 0.00 33 1004.9
20260504232630 69 22 0.0 1.7 0.00 0.00 0.00 33 1005.0
20260504232354 69 93 0.0 1.7 0.00 0.00 0.00 33 1004.9
20260504231403 70 19 0.9 6.1 0.00 0.00 0.00 33 1004.8
20260504230907 70 237 1.7 6.1 0.00 0.00 0.00 32 1004.7
20260504230403 70 99 0.9 6.1 0.00 0.00 0.00 32 1004.6
20260504225903 70 204 0.9 3.5 0.00 0.00 0.00 32 1004.6
20260504225840 71 308 0.9 3.5 0.00 0.00 0.00 32 1004.5
20260504224904 71 218 0.9 3.5 0.00 0.00 0.00 31 1004.5
20260504224404 71 240 0.9 7.0 0.00 0.00 0.00 32 1004.5
20260504223903 71 219 1.7 7.0 0.00 0.00 0.00 31 1004.4
20260504223626 71 211 0.9 2.6 0.00 0.00 0.00 31 1004.4
20260504222904 71 136 0.9 8.7 0.00 0.00 0.00 30 1004.4
20260504222403 71 244 1.7 8.7 0.00 0.00 0.00 30 1004.4
20260504222122 71 221 1.7 5.2 0.00 0.00 0.00 30 1004.4
20260504221404 72 208 1.7 5.2 0.00 0.00 0.00 30 1004.3
20260504220903 72 311 0.9 7.0 0.00 0.00 0.00 29 1004.3
20260504220404 72 260 1.7 7.0 0.00 0.00 0.00 29 1004.4
20260504215904 72 302 1.7 7.8 0.00 0.00 0.00 30 1004.4
20260504215404 72 341 2.6 7.8 0.00 0.00 0.00 28 1004.3
20260504214903 72 238 2.6 6.1 0.00 0.00 0.00 28 1004.4
20260504214402 72 207 1.7 6.1 0.00 0.00 0.00 28 1004.3
20260504213901 72 321 1.7 6.1 0.00 0.00 0.00 28 1004.3
20260504213402 72 261 1.7 6.1 0.00 0.00 0.00 29 1004.3
20260504212901 72 349 0.9 3.5 0.00 0.00 0.00 29 1004.4
20260504212401 72 43 1.7 3.5 0.00 0.00 0.00 30 1004.3
20260504212126 72 324 1.7 6.1 0.00 0.00 0.00 29 1004.3
20260504211625 72 262 1.7 6.1 0.00 0.00 0.00 31 1004.3
20260504210902 72 219 1.7 4.3 0.00 0.00 0.00 30 1004.2
20260504210401 72 246 1.7 3.5 0.00 0.00 0.00 28 1004.3
20260504205902 72 9 1.7 7.0 0.00 0.00 0.00 29 1004.2
20260504205401 72 207 1.7 7.0 0.00 0.00 0.00 28 1004.3
20260504204902 73 0 2.6 6.1 0.00 0.00 0.00 28 1004.3
20260504204401 73 225 1.7 7.8 0.00 0.00 0.00 28 1004.4
20260504203902 73 131 0.9 7.8 0.00 0.00 0.00 28 1004.4
20260504203401 73 217 1.7 9.6 0.00 0.00 0.00 28 1004.3
20260504202902 73 355 2.6 9.6 0.00 0.00 0.00 27 1004.3
20260504202402 73 136 2.6 7.0 0.00 0.00 0.00 28 1004.3
20260504201902 73 208 1.7 5.2 0.00 0.00 0.00 28 1004.3
20260504201402 73 198 1.7 7.0 0.00 0.00 0.00 27 1004.3
20260504200902 73 327 1.7 7.0 0.00 0.00 0.00 29 1004.3
20260504200402 72 210 1.7 7.8 0.00 0.00 0.00 27 1004.3
20260504200123 72 327 2.6 10.4 0.00 0.00 0.00 27 1004.5
20260504195402 73 253 3.5 10.4 0.00 0.00 0.00 27 1004.5
20260504195351 73 182 2.6 10.4 0.00 0.00 0.00 26 1004.3
20260504194401 73 318 1.7 7.8 0.00 0.00 0.00 28 1004.4
20260504193901 73 223 2.6 7.0 0.00 0.00 0.00 27 1004.4
20260504193402 73 235 2.6 7.0 0.00 0.00 0.00 26 1004.4
20260504193127 73 150 2.6 7.8 0.00 0.00 0.00 26 1004.4
20260504192401 73 211 3.5 12.2 0.00 0.00 0.00 26 1004.5
20260504191902 73 231 3.5 12.2 0.00 0.00 0.00 26 1004.5
20260504191401 73 214 2.6 7.8 0.00 0.00 0.00 27 1004.4
20260504190902 73 342 2.6 7.8 0.00 0.00 0.00 27 1004.4
20260504190404 73 301 1.7 7.8 0.00 0.00 0.00 26 1004.4
20260504185903 73 235 2.6 7.8 0.00 0.00 0.00 26 1004.6
20260504185622 73 185 2.6 7.0 0.00 0.00 0.00 26 1004.6
20260504185121 73 224 2.6 7.0 0.00 0.00 0.00 27 1004.7
20260504184403 73 57 1.7 6.1 0.00 0.00 0.00 28 1004.9
20260504183901 72 157 2.6 8.7 0.00 0.00 0.00 27 1004.9
20260504183404 72 244 2.6 9.6 0.00 0.00 0.00 27 1004.9
20260504182903 72 105 2.6 9.6 0.00 0.00 0.00 28 1004.9
20260504182403 71 331 3.5 7.8 0.00 0.00 0.00 28 1005.0
20260504181902 71 193 3.5 7.8 0.00 0.00 0.00 27 1005.1
20260504181402 71 175 3.5 8.7 0.00 0.00 0.00 27 1005.0
20260504181127 71 198 4.3 8.7 0.00 0.00 0.00 27 1005.0
20260504180403 71 277 4.3 8.7 0.00 0.00 0.00 28 1004.8
20260504175901 71 215 3.5 8.7 0.00 0.00 0.00 27 1004.9
20260504175625 71 162 2.6 7.8 0.00 0.00 0.00 27 1004.9
20260504174902 71 256 3.5 8.7 0.00 0.00 0.00 28 1005.1
20260504174401 71 132 4.3 8.7 0.00 0.00 0.00 28 1004.9
20260504173902 71 196 3.5 9.6 0.00 0.00 0.00 28 1005.1
20260504173634 71 199 3.5 9.6 0.00 0.00 0.00 28 1005.2
20260504173124 71 209 3.5 7.8 0.00 0.00 0.00 28 1005.1
20260504172402 70 173 4.3 9.6 0.00 0.00 0.00 27 1005.2
20260504172125 70 109 4.3 11.3 0.00 0.00 0.00 27 1005.3
20260504171405 70 211 4.3 12.2 0.00 0.00 0.00 28 1005.1
20260504170902 70 171 3.5 12.2 0.00 0.00 0.00 30 1005.3
20260504170621 70 253 2.6 11.3 0.00 0.00 0.00 30 1005.3
20260504160402 68 221 3.5 11.3 0.00 0.00 0.00 32 1005.6
20260504150901 66 210 2.6 7.0 0.00 0.00 0.00 35 1006.3
20260504150401 66 261 1.7 7.0 0.00 0.00 0.00 36 1006.5
20260504140851 63 321 2.6 12.2 0.00 0.00 0.00 39 1007.2
20260504140119 63 185 2.6 12.2 0.00 0.00 0.00 40 1007.3
20260504130630 59 250 0.9 4.3 0.00 0.00 0.00 44 1007.8
20260504110402 47 96 0.0 0.0 0.00 0.00 0.00 61 1008.7
20260504100401 45 88 0.0 0.9 0.00 0.00 0.00 61 1008.6
20260504081901 44 213 0.0 0.0 0.00 0.00 0.00 60 1008.5
20260504081402 44 213 0.0 0.0 0.00 0.00 0.00 61 1008.6
20260504081122 44 213 0.0 0.9 0.00 0.00 0.00 60 1008.5
20260504081104 44 213 0.0 0.9 0.00 0.00 0.00 60 1008.5
20260504080121 44 213 0.0 0.9 0.00 0.00 0.00 59 1008.5
20260504050350 43 232 0.0 0.0 0.00 0.00 0.00 57 1008.3
20260504045554 43 234 0.0 0.0 0.00 0.00 0.00 57 1008.3
20260504045054 43 238 0.0 0.0 0.00 0.00 0.00 57 1008.3
20260504044554 43 238 0.0 0.0 0.00 0.00 0.00 56 1008.3
20260504044054 44 222 0.0 0.0 0.00 0.00 0.00 56 1008.3
20260504043554 44 224 0.0 0.0 0.00 0.00 0.00 55 1008.3
20260504043315 44 225 0.0 0.0 0.00 0.00 0.00 55 1008.3
20260504042554 44 225 0.0 0.0 0.00 0.00 0.00 55 1008.3
20260504042054 44 225 0.0 1.7 0.00 0.00 0.00 55 1008.3
20260504041554 44 232 0.0 1.7 0.00 0.00 0.00 55 1008.3
20260504041055 44 226 0.0 0.0 0.00 0.00 0.00 55 1008.2
20260504040553 44 225 0.0 0.0 0.00 0.00 0.00 54 1008.1
20260504040318 44 225 0.0 0.0 0.00 0.00 0.00 55 1008.1
20260504035551 44 225 0.0 1.7 0.00 0.00 0.00 54 1008.1
20260504035049 44 225 0.0 2.6 0.00 0.00 0.00 55 1008.1
20260504034548 44 217 0.0 0.9 0.00 0.00 0.00 55 1008.1
20260504034043 44 207 0.0 0.9 0.00 0.00 0.00 54 1008.0
20260504033537 44 206 0.0 1.7 0.00 0.00 0.00 54 1008.0
20260504033257 44 205 0.0 1.7 0.00 0.00 0.00 54 1008.0
20260504032531 44 209 0.9 1.7 0.00 0.00 0.00 54 1008.0
20260504032030 44 235 0.0 1.7 0.00 0.00 0.00 54 1008.1